K8RRT Weather Reports


Display with metric or nautical units.
time (UTC)temp
F
wind
direction
speed
MPH
gust
MPH
rain 1hr
in
rain 24hr
in
rain mn
in
humidity
%
barometer
mb
20260510203853 75 335 5.0 6.0 0.00 0.00 0.00 66 1010.5
20260510203351 74 2 3.0 6.0 0.00 0.00 0.00 67 1010.3
20260510202845 73 296 3.0 3.0 0.00 0.00 0.00 68 1010.6
20260510202341 75 341 3.0 3.0 0.00 0.00 0.00 66 1010.3
20260510201838 74 305 2.0 2.0 0.00 0.00 0.00 67 1010.4
20260510201335 74 267 2.0 2.0 0.00 0.00 0.00 66 1010.5
20260510200832 75 85 3.0 6.0 0.00 0.00 0.00 64 1010.6
20260510200330 75 23 2.0 3.0 0.00 0.00 0.00 68 1010.5
20260510195825 74 28 3.0 3.0 0.00 0.00 0.00 67 1010.5
20260510195322 74 268 3.0 3.0 0.00 0.00 0.00 67 1010.8
20260510194817 73 300 2.0 3.0 0.00 0.00 0.00 70 1010.9
20260510194314 72 273 2.0 2.0 0.00 0.00 0.00 71 1010.9
20260510193809 71 244 2.0 2.0 0.00 0.00 0.00 71 1010.7
20260510193304 72 289 2.0 2.0 0.00 0.00 0.00 74 1010.9
20260510192801 72 251 3.0 3.0 0.00 0.00 0.00 72 1010.9
20260510192256 71 242 1.0 2.0 0.00 0.00 0.00 76 1010.9
20260510191752 70 284 2.0 2.0 0.00 0.00 0.00 76 1011.0
20260510191248 70 248 2.0 2.0 0.00 0.00 0.00 76 1011.1
20260510190747 70 295 2.0 2.0 0.00 0.00 0.00 72 1011.2
20260510190243 72 289 5.0 6.0 0.00 0.00 0.00 67 1011.3
20260510185739 73 244 3.0 3.0 0.00 0.00 0.00 65 1011.0
20260510185238 73 275 5.0 5.0 0.00 0.00 0.00 64 1010.8
20260510184734 73 337 5.0 7.0 0.00 0.00 0.00 63 1010.9
20260510184231 73 302 6.0 7.0 0.00 0.00 0.00 62 1010.7
20260510183726 74 295 7.0 10.0 0.00 0.00 0.00 61 1010.7
20260510183221 73 269 6.0 7.0 0.00 0.00 0.00 62 1010.9
20260510182717 73 354 7.0 11.0 0.00 0.00 0.00 62 1010.8
20260510182213 74 353 10.0 13.0 0.00 0.00 0.00 62 1010.8
20260510181710 74 307 7.0 8.0 0.00 0.00 0.00 62 1010.7
20260510181207 74 278 6.0 7.0 0.00 0.00 0.00 63 1010.7
20260510180703 74 322 9.0 11.0 0.00 0.00 0.00 64 1010.6
20260510180201 74 266 9.0 10.0 0.00 0.00 0.00 62 1010.6
20260510175657 74 284 7.0 9.0 0.00 0.00 0.00 62 1010.5
20260510175152 74 305 5.0 6.0 0.00 0.00 0.00 63 1010.7
20260510174650 75 296 7.0 8.0 0.00 0.00 0.00 64 1010.6
20260510174148 74 271 4.0 5.0 0.00 0.00 0.00 64 1010.5
20260510173643 74 310 7.0 8.0 0.00 0.00 0.00 64 1010.5
20260510173140 74 302 6.0 7.0 0.00 0.00 0.00 64 1010.8
20260510172635 74 294 8.0 10.0 0.00 0.00 0.00 63 1010.6
20260510172132 74 257 3.0 5.0 0.00 0.00 0.00 63 1010.5
20260510171628 73 240 3.0 3.0 0.00 0.00 0.00 63 1010.8
20260510171126 73 301 2.0 3.0 0.00 0.00 0.00 64 1010.6
20260510170622 73 283 5.0 7.0 0.00 0.00 0.00 66 1010.6
20260510170119 71 325 5.0 5.0 0.00 0.00 0.00 66 1010.6
20260510165614 71 313 1.0 1.0 0.00 0.00 0.00 67 1010.7
20260510165110 70 263 3.0 3.0 0.00 0.00 0.00 67 1010.7
20260510164608 70 290 2.0 2.0 0.00 0.00 0.00 69 1011.0
20260510164104 71 319 6.0 7.0 0.00 0.00 0.00 67 1010.7
20260510163559 71 337 4.0 5.0 0.00 0.00 0.00 66 1010.6
20260510163056 72 306 3.0 6.0 0.00 0.00 0.00 64 1010.6
20260510162551 74 315 5.0 7.0 0.00 0.00 0.00 63 1010.9
20260510162048 74 263 4.0 5.0 0.00 0.00 0.00 60 1010.7
20260510161543 73 271 3.0 5.0 0.00 0.00 0.00 61 1010.7
20260510161041 72 280 3.0 5.0 0.00 0.00 0.00 62 1010.7
20260510160537 72 325 5.0 6.0 0.00 0.00 0.00 64 1010.6
20260510160037 72 273 6.0 8.0 0.00 0.00 0.00 63 1010.8
20260510155533 71 323 7.0 9.0 0.00 0.00 0.00 63 1010.8
20260510155030 72 269 9.0 9.0 0.00 0.00 0.00 62 1010.8
20260510154526 72 296 4.0 5.0 0.00 0.00 0.00 62 1010.7
20260510154021 72 279 3.0 3.0 0.00 0.00 0.00 62 1010.6
20260510153516 72 323 6.0 8.0 0.00 0.00 0.00 63 1010.7
20260510153013 71 254 6.0 10.0 0.00 0.00 0.00 62 1010.7
20260510152510 72 310 7.0 9.0 0.00 0.00 0.00 62 1010.7
20260510152006 72 219 3.0 5.0 0.00 0.00 0.00 65 1010.4
20260510151503 72 288 4.0 6.0 0.00 0.00 0.00 62 1010.7
20260510151001 72 296 5.0 8.0 0.00 0.00 0.00 64 1010.3
20260510150456 72 277 5.0 6.0 0.00 0.00 0.00 63 1010.2
20260510145952 71 271 3.0 3.0 0.00 0.00 0.00 65 1010.3
20260510145448 71 262 2.0 2.0 0.00 0.00 0.00 64 1010.3
20260510144945 71 297 3.0 5.0 0.00 0.00 0.00 64 1010.8
20260510144442 71 307 4.0 6.0 0.00 0.00 0.00 65 1010.5
20260510143937 71 280 5.0 6.0 0.00 0.00 0.00 66 1010.5
20260510143433 71 277 3.0 5.0 0.00 0.00 0.00 66 1010.7
20260510142931 70 308 3.0 3.0 0.00 0.00 0.00 68 1010.6
20260510142427 70 244 6.0 8.0 0.00 0.00 0.00 65 1010.7
20260510141924 69 241 5.0 7.0 0.00 0.00 0.00 66 1010.5
20260510141420 69 243 3.0 5.0 0.00 0.00 0.00 67 1010.2
20260510140918 69 248 3.0 5.0 0.00 0.00 0.00 68 1010.4
20260510140413 68 267 5.0 6.0 0.00 0.00 0.00 67 1010.6
20260510135907 69 247 7.0 9.0 0.00 0.00 0.00 68 1010.7
20260510135404 69 258 4.0 5.0 0.00 0.00 0.00 69 1010.6
20260510134901 68 282 3.0 3.0 0.00 0.00 0.00 71 1010.7
20260510134357 67 244 6.0 7.0 0.00 0.00 0.00 72 1010.7
20260510133854 67 290 5.0 6.0 0.00 0.00 0.00 71 1010.7
20260510133350 67 258 4.0 5.0 0.00 0.00 0.00 72 1010.8
20260510132845 67 215 3.0 3.0 0.00 0.00 0.00 72 1010.6
20260510132344 67 228 5.0 6.0 0.00 0.00 0.00 70 1010.6
20260510131840 66 265 3.0 3.0 0.00 0.00 0.00 74 1010.5
20260510131338 66 276 2.0 3.0 0.00 0.00 0.00 73 1010.4
20260510130834 65 254 3.0 3.0 0.00 0.00 0.00 75 1010.6
20260510130331 65 285 3.0 5.0 0.00 0.00 0.00 76 1010.6
20260510125827 65 254 2.0 2.0 0.00 0.00 0.00 76 1010.5
20260510125318 65 246 2.0 2.0 0.00 0.00 0.00 76 1010.5
20260510124815 64 242 1.0 1.0 0.00 0.00 0.00 76 1010.5
20260510124312 64 288 1.0 1.0 0.00 0.00 0.00 77 1010.5
20260510123808 63 245 2.0 2.0 0.00 0.00 0.00 78 1010.5
20260510123304 63 289 1.0 1.0 0.00 0.00 0.00 80 1010.5
20260510122800 62 258 2.0 3.0 0.00 0.00 0.00 79 1010.3
20260510122256 60 274 3.0 3.0 0.00 0.00 0.00 85 1010.2
20260510121753 59 228 2.0 2.0 0.00 0.00 0.00 94 1010.2
20260510121250 58 281 1.0 1.0 0.00 0.00 0.00 98 1010.1
20260510120747 57 302 1.0 2.0 0.00 0.00 0.00 99 1010.3
20260510120244 57 265 0.0 1.0 0.00 0.00 0.00 99 1010.4
20260510115739 56 342 0.0 0.0 0.00 0.00 0.00 99 1010.1
20260510115238 55 311 0.0 1.0 0.00 0.00 0.00 99 1010.1
20260510114732 56 309 0.0 0.0 0.00 0.00 0.00 99 1010.0
20260510114230 57 148 0.0 0.0 0.00 0.00 0.00 99 1010.0
20260510113725 56 147 0.0 0.0 0.00 0.00 0.00 99 1010.0
20260510113223 55 146 0.0 0.0 0.00 0.00 0.00 99 1009.6
20260510112718 54 150 0.0 0.0 0.00 0.00 0.00 99 1009.8
20260510112216 54 150 0.0 0.0 0.00 0.00 0.00 99 1010.0
20260510111711 53 150 0.0 0.0 0.00 0.00 0.00 99 1009.5
20260510111208 51 139 0.0 0.0 0.00 0.00 0.00 99 1009.5
20260510110703 51 148 0.0 0.0 0.00 0.00 0.00 99 1009.4
20260510110201 50 166 1.0 1.0 0.00 0.00 0.00 99 1009.2
20260510105655 50 177 1.0 1.0 0.00 0.00 0.00 99 1009.4
20260510105150 49 214 0.0 0.0 0.00 0.00 0.00 99 1009.1
20260510104647 49 200 0.0 1.0 0.00 0.00 0.00 99 1009.1
20260510104144 48 256 0.0 0.0 0.00 0.00 0.00 99 1009.0
20260510103641 48 296 0.0 0.0 0.00 0.00 0.00 99 1009.0
20260510103137 48 295 0.0 0.0 0.00 0.00 0.00 99 1008.9
20260510102632 48 332 0.0 0.0 0.00 0.00 0.00 99 1008.9
20260510102128 49 354 1.0 1.0 0.00 0.00 0.00 99 1008.7
20260510101626 48 319 0.0 0.0 0.00 0.00 0.00 99 1008.6
20260510101124 48 315 0.0 0.0 0.00 0.00 0.00 99 1008.7
20260510100620 48 315 0.0 0.0 0.00 0.00 0.00 99 1009.0
20260510100118 49 300 0.0 0.0 0.00 0.00 0.00 99 1009.0
20260510095613 49 183 0.0 0.0 0.00 0.00 0.00 99 1008.6
20260510095113 49 172 1.0 1.0 0.00 0.00 0.00 99 1008.6
20260510094612 48 280 0.0 0.0 0.00 0.00 0.00 99 1008.4
20260510094108 49 318 1.0 1.0 0.00 0.00 0.00 99 1008.3
20260510093605 50 95 0.0 1.0 0.00 0.00 0.00 99 1008.4
20260510093101 50 120 0.0 0.0 0.00 0.00 0.00 99 1008.3
20260510092558 50 119 0.0 0.0 0.00 0.00 0.00 99 1008.3
20260510092058 50 117 1.0 1.0 0.00 0.00 0.00 99 1008.4
20260510091555 50 149 0.0 1.0 0.00 0.00 0.00 99 1008.1
20260510091051 49 153 1.0 1.0 0.00 0.00 0.00 99 1008.1
20260510090548 49 260 0.0 0.0 0.00 0.00 0.00 99 1008.3
20260510090043 49 324 1.0 2.0 0.00 0.00 0.00 99 1008.1
20260510085538 49 321 0.0 0.0 0.00 0.00 0.00 99 1007.8
20260510085035 50 321 0.0 0.0 0.00 0.00 0.00 99 1007.9
20260510084532 50 271 0.0 0.0 0.00 0.00 0.00 99 1007.9
20260510084028 49 283 0.0 0.0 0.00 0.00 0.00 99 1007.9
20260510083525 50 349 0.0 0.0 0.00 0.00 0.00 99 1007.6
20260510083021 51 336 0.0 0.0 0.00 0.00 0.00 99 1007.7
20260510082518 51 63 0.0 0.0 0.00 0.00 0.00 99 1007.6
20260510082019 51 64 0.0 0.0 0.00 0.00 0.00 99 1007.8
20260510081514 50 38 0.0 0.0 0.00 0.00 0.00 99 1007.8
20260510081010 50 229 0.0 0.0 0.00 0.00 0.00 99 1007.9
20260510080509 50 236 0.0 0.0 0.00 0.00 0.00 99 1007.6
20260510080006 50 246 0.0 0.0 0.00 0.00 0.00 99 1007.7
20260510075504 49 339 0.0 0.0 0.00 0.00 0.00 99 1007.5
20260510075000 50 327 0.0 0.0 0.00 0.00 0.00 99 1007.7
20260510074458 50 314 0.0 0.0 0.00 0.00 0.00 99 1007.5
20260510073953 51 254 0.0 1.0 0.00 0.00 0.00 99 1007.7
20260510073449 51 308 0.0 0.0 0.00 0.00 0.00 99 1007.5
20260510072946 51 247 0.0 0.0 0.00 0.00 0.00 99 1007.5
20260510072443 51 188 0.0 0.0 0.00 0.00 0.00 99 1007.4
20260510071938 51 56 0.0 0.0 0.00 0.00 0.00 99 1007.5
20260510071435 51 41 0.0 0.0 0.00 0.00 0.00 99 1007.4
20260510070933 52 48 0.0 1.0 0.00 0.00 0.00 99 1007.4
20260510070430 52 118 1.0 1.0 0.00 0.00 0.00 99 1007.3
20260510065926 52 48 0.0 0.0 0.00 0.00 0.00 99 1007.4
20260510065422 52 26 0.0 0.0 0.00 0.00 0.00 99 1007.4
20260510064918 52 138 0.0 0.0 0.00 0.00 0.00 99 1007.4
20260510064417 52 137 0.0 0.0 0.00 0.00 0.00 99 1007.3
20260510063913 52 138 1.0 1.0 0.00 0.00 0.00 99 1007.5
20260510063409 51 225 0.0 1.0 0.00 0.00 0.00 99 1007.5
20260510062907 51 27 0.0 0.0 0.00 0.00 0.00 99 1007.5
20260510062402 51 4 0.0 0.0 0.00 0.00 0.00 99 1007.6
20260510061858 52 37 0.0 0.0 0.00 0.00 0.00 99 1007.7
20260510061354 52 41 0.0 0.0 0.00 0.00 0.00 99 1007.7
20260510060850 53 119 0.0 1.0 0.00 0.00 0.00 99 1007.7
20260510060347 52 26 0.0 0.0 0.00 0.00 0.00 99 1007.5
20260510055844 52 286 0.0 0.0 0.00 0.00 0.00 99 1007.5
20260510055343 51 287 0.0 0.0 0.00 0.00 0.00 99 1007.7
20260510054842 52 327 0.0 0.0 0.00 0.00 0.00 99 1007.6
20260510054338 52 3 0.0 0.0 0.00 0.00 0.00 99 1007.6
20260510053833 53 25 0.0 0.0 0.00 0.00 0.00 99 1007.6
20260510053329 53 178 0.0 0.0 0.00 0.00 0.00 99 1007.6
20260510052826 53 178 0.0 0.0 0.00 0.00 0.00 99 1007.6
20260510052321 53 177 0.0 1.0 0.00 0.00 0.00 99 1007.5
20260510051818 53 299 0.0 0.0 0.00 0.00 0.00 99 1007.7
20260510051315 53 266 1.0 1.0 0.00 0.00 0.00 99 1007.8
20260510050812 53 233 0.0 0.0 0.00 0.00 0.00 99 1007.9
20260510050308 53 166 0.0 0.0 0.00 0.00 0.00 99 1007.6
20260510045805 53 160 0.0 0.0 0.00 0.00 0.00 98 1007.9
20260510045305 53 229 0.0 0.0 0.00 0.00 0.00 98 1007.6
20260510044759 53 348 0.0 0.0 0.00 0.00 0.00 98 1007.9
20260510044256 53 346 0.0 0.0 0.00 0.00 0.00 98 1008.0
20260510043752 53 349 0.0 0.0 0.00 0.00 0.00 98 1007.8
20260510043243 54 156 0.0 1.0 0.00 0.00 0.00 98 1007.9
20260510042740 53 174 0.0 0.0 0.00 0.00 0.00 98 1008.1
20260510042235 53 151 0.0 0.0 0.00 0.00 0.00 97 1007.9
20260510041733 53 150 0.0 0.0 0.00 0.00 0.00 97 1007.7
20260510041230 54 186 0.0 0.0 0.00 0.00 0.00 96 1008.0
20260510040727 54 186 0.0 0.0 0.00 0.00 0.00 96 1007.9
20260510040224 55 141 0.0 0.0 0.00 0.00 0.00 96 1008.0
20260510035719 55 141 0.0 1.0 0.00 0.00 0.00 97 1007.9
20260510035215 55 174 0.0 0.0 0.00 0.00 0.00 97 1008.0
20260510034711 54 207 0.0 0.0 0.00 0.00 0.00 97 1007.9
20260510034210 55 231 0.0 0.0 0.00 0.00 0.00 96 1007.9
20260510033705 55 224 0.0 0.0 0.00 0.00 0.00 97 1008.0
20260510033203 55 192 0.0 0.0 0.00 0.00 0.00 96 1007.9
20260510032659 55 237 0.0 0.0 0.00 0.00 0.00 96 1008.0
20260510032155 54 243 0.0 1.0 0.00 0.00 0.00 96 1008.0
20260510031649 54 307 0.0 0.0 0.00 0.00 0.00 95 1008.1
20260510031146 54 307 0.0 0.0 0.00 0.00 0.00 95 1007.9
20260510030641 55 308 0.0 0.0 0.00 0.00 0.00 95 1007.9
20260510030139 55 306 0.0 1.0 0.00 0.00 0.00 94 1008.0
20260510025636 55 281 0.0 0.0 0.00 0.00 0.00 94 1007.5
20260510025133 55 284 0.0 0.0 0.00 0.00 0.00 93 1007.7
20260510024630 55 284 0.0 0.0 0.00 0.00 0.00 92 1007.5
20260510024126 56 277 0.0 1.0 0.00 0.00 0.00 92 1007.5
20260510023622 56 179 0.0 0.0 0.00 0.00 0.00 91 1007.6
20260510023120 57 214 0.0 0.0 0.00 0.00 0.00 90 1007.5
20260510022619 57 292 0.0 1.0 0.00 0.00 0.00 88 1007.5
20260510022115 58 329 0.0 0.0 0.00 0.00 0.00 86 1007.2
20260510021610 59 327 1.0 1.0 0.00 0.00 0.00 83 1007.1
20260510021108 61 250 1.0 1.0 0.00 0.00 0.00 82 1006.9
20260510020602 61 224 1.0 2.0 0.00 0.00 0.00 81 1006.9
20260510020058 61 240 1.0 1.0 0.00 0.00 0.00 82 1006.9
20260510015554 61 230 1.0 1.0 0.00 0.00 0.00 82 1006.8
20260510015050 61 221 3.0 3.0 0.00 0.00 0.00 81 1006.9
20260510014546 61 227 2.0 2.0 0.00 0.00 0.00 81 1006.8
20260510014044 62 252 2.0 2.0 0.00 0.00 0.00 80 1006.6
20260510013538 63 254 2.0 2.0 0.00 0.00 0.00 77 1006.5
20260510013034 63 256 3.0 3.0 0.00 0.00 0.00 77 1006.2
20260510012528 63 233 1.0 1.0 0.00 0.00 0.00 77 1006.3
20260510012025 64 234 1.0 1.0 0.00 0.00 0.00 76 1006.3
20260510011524 64 189 1.0 1.0 0.00 0.00 0.00 75 1006.3
20260510011020 64 264 1.0 1.0 0.00 0.00 0.00 74 1006.2
20260510010517 64 223 2.0 2.0 0.00 0.00 0.00 74 1006.3
20260510010015 65 231 1.0 1.0 0.00 0.00 0.00 73 1006.3
20260510005510 65 191 2.0 2.0 0.00 0.00 0.00 72 1006.1
20260510005008 65 236 3.0 3.0 0.00 0.00 0.00 73 1006.0
20260510004505 66 262 2.0 2.0 0.00 0.00 0.00 72 1006.0
20260510004003 66 203 0.0 1.0 0.00 0.00 0.00 71 1005.9
20260510003459 66 245 2.0 2.0 0.00 0.00 0.00 71 1005.9
20260510002954 66 225 3.0 3.0 0.00 0.00 0.00 71 1005.8
20260510002451 66 233 4.0 5.0 0.00 0.00 0.00 70 1005.7
20260510001947 67 236 2.0 3.0 0.00 0.00 0.00 70 1005.6
20260510001445 67 233 2.0 2.0 0.00 0.00 0.00 69 1005.7
20260510000943 68 224 3.0 5.0 0.00 0.00 0.00 68 1005.5
20260510000440 68 242 1.0 1.0 0.00 0.00 0.00 67 1005.5
20260509235935 69 239 2.0 5.0 0.00 0.00 0.00 66 1005.6
20260509235432 69 223 3.0 3.0 0.00 0.00 0.00 66 1005.4
20260509234928 70 210 3.0 5.0 0.00 0.00 0.00 65 1005.3
20260509234425 70 245 2.0 3.0 0.00 0.00 0.00 64 1005.5
20260509233923 70 251 4.0 5.0 0.00 0.00 0.00 63 1005.5
20260509233420 70 256 2.0 2.0 0.00 0.00 0.00 64 1005.4
20260509232916 70 242 1.0 2.0 0.00 0.00 0.00 64 1005.4
20260509232414 70 240 2.0 2.0 0.00 0.00 0.00 63 1005.4
20260509231910 70 235 3.0 3.0 0.00 0.00 0.00 63 1005.6
20260509231407 70 245 7.0 9.0 0.00 0.00 0.00 62 1005.6
20260509230905 70 223 3.0 3.0 0.00 0.00 0.00 62 1005.5
20260509230401 70 221 2.0 5.0 0.00 0.00 0.00 63 1005.4
20260509225857 71 273 5.0 7.0 0.00 0.00 0.00 61 1005.4
20260509225354 71 217 4.0 6.0 0.00 0.00 0.00 61 1005.3
20260509224849 71 255 5.0 7.0 0.00 0.00 0.00 61 1005.2
20260509224346 71 232 3.0 3.0 0.00 0.00 0.00 62 1005.3
20260509223843 72 251 6.0 7.0 0.00 0.00 0.00 60 1005.5
20260509223339 72 222 4.0 5.0 0.00 0.00 0.00 60 1005.4
20260509222837 72 284 3.0 5.0 0.00 0.00 0.00 61 1005.4
20260509222332 72 258 4.0 6.0 0.00 0.00 0.00 61 1005.0
20260509221827 72 244 3.0 3.0 0.00 0.00 0.00 59 1005.3
20260509221325 72 252 7.0 9.0 0.00 0.00 0.00 60 1005.1
20260509220825 72 257 2.0 2.0 0.00 0.00 0.00 60 1005.2
20260509220322 72 251 6.0 7.0 0.00 0.00 0.00 59 1005.4
20260509215817 72 239 4.0 6.0 0.00 0.00 0.00 61 1005.4
20260509215314 71 241 3.0 3.0 0.00 0.00 0.00 62 1005.3
20260509214811 71 258 2.0 2.0 0.00 0.00 0.00 62 1005.4
20260509214308 71 272 1.0 2.0 0.00 0.00 0.00 61 1005.3
20260509213805 73 236 6.0 8.0 0.00 0.00 0.00 60 1005.3
20260509213301 71 260 2.0 2.0 0.00 0.00 0.00 63 1005.4
20260509212758 72 237 6.0 7.0 0.00 0.00 0.00 61 1005.5
20260509212255 72 280 6.0 7.0 0.00 0.00 0.00 62 1005.4
20260509211751 72 249 4.0 5.0 0.00 0.00 0.00 62 1005.7
20260509211248 73 217 8.0 9.0 0.00 0.00 0.00 60 1005.5
20260509210744 72 284 3.0 3.0 0.00 0.00 0.00 62 1005.6
20260509210242 71 288 3.0 3.0 0.00 0.00 0.00 62 1005.5
20260509205741 71 266 5.0 7.0 0.00 0.00 0.00 62 1005.5
20260509205236 72 273 3.0 5.0 0.00 0.00 0.00 65 1005.4
20260509204732 71 237 2.0 2.0 0.00 0.00 0.00 64 1005.4